Regional Weather Roundup
Issued by NWS

Home | Current Version | Previous Version | Graphics & Text | Print | Product List | Glossary On
Versions: 1 2 3 4 5 6 7 8 9 10 11 12 13 14 15 16 17 18 19 20 21 22 23 24 25 26 27 28 29 30 31 32 33 34 35 36 37 38 39 40 41 42 43 44 45 46 47 48 49 50
000
ASUS43 KLOT 230103
RWRIL

ILLINOIS REGIONAL WEATHER ROUNDUP
NATIONAL WEATHER SERVICE CHICAGO/ROMEOVILLE IL
800 PM CDT SAT APR 22 2017

NOTE: "FAIR" INDICATES FEW OR NO CLOUDS BELOW 12,000 FEET WITH NO
SIGNIFICANT WEATHER AND/OR OBSTRUCTIONS TO VISIBILITY.

* THESE STATIONS ARE NOT UNDER NWS QUALITY CONTROL. THEY ALSO MAY NOT
  REPORT WEATHER SUCH AS PRECIPITATION OR FOG.

ILZ001-002-007-009-015-016-024-230200-
NORTHWEST ILLINOIS

CITY           SKY/WX    TMP DP  RH WIND       PRES   REMARKS
MOLINE         CLEAR     60  29  30 NE6       30.14S
STERLING*      CLEAR     54  33  45 E7        30.15S
SAVANNA*       CLEAR     58  30  34 N3        30.15S
$$

ILZ003-004-008-010-011-017-018-230200-
NORTH CENTRAL ILLINOIS

CITY           SKY/WX    TMP DP  RH WIND       PRES   REMARKS
ROCKFORD       PTCLDY    56  27  32 E6        30.16R
FREEPORT*      CLEAR     57  28  33 CALM      30.17R
ROCHELLE*      CLEAR     54  29  38 E6        30.15S
DE KALB*       CLEAR     52  25  34 E5        30.16S
$$

ILZ005-006-012>014-019>023-230200-
NORTHEAST ILLINOIS

CITY           SKY/WX    TMP DP  RH WIND       PRES   REMARKS
CHICAGO-OHARE  PTCLDY    54  21  27 NE5       30.15S
CHICAGO-MIDWAY PTCLDY    52  22  30 N6        30.15S
AURORA         CLEAR     52  26  36 NE6       30.15F
LANSING*       CLEAR     48  31  53 N3        30.16S
WAUKEGAN       CLEAR     45  27  49 CALM      30.15F
DUPAGE AIRPORT CLEAR     51  25  36 NE6       30.14S
WHEELING       CLEAR     52  21  29 NE3       30.16F
MORRIS*        CLEAR     53  25  34 CALM      30.14R
NORTHERLY ISL    N/A     50  27  41 MISG        N/A
$$

LMZ740>746-230200-
SOUTHERN LAKE MICHIGAN

STATION/POSITION SKY/WX   TEMP    WIND        PRES    VSBY  WAVE
                          AIR SEA DIR/SP/G                  HT/PER
                          (F)     (DEG/KT/KT) (MB)    (MI)  (FT/S)
HARRISON CRIB              48     350/ 10/ 12   N/A
BURNHAM HARBOR             50     350/  7/ 12   N/A
CALUMET HARBOR             48     340/  6/  9 1020.5F
BURNS HARBOR               46      40/  7/  8 1021.7S
MICHIGAN CITY              45      30/ 10/ 11   N/A
ST. JOSEPH                 47 47   50/ 10/ 12 1021.6F         2/ 4
$$

ILZ025>027-034>036-040-047-049-050-058-095>099-230200-
WEST-CENTRAL ILLINOIS

CITY           SKY/WX    TMP DP  RH WIND       PRES   REMARKS
QUINCY         CLEAR     55  34  45 NE9       30.10R
GALESBURG*     CLEAR     53  31  44 NE6       30.13S
MACOMB*        CLEAR     56  31  39 NE12      30.14R
JACKSONVILLE*  CLEAR     57  28  32 NE12      30.09R
PITTSFIELD*    CLEAR     58  32  36 NE8       30.10R
$$

ILZ028>032-037-038-041>044-048-051>054-059>061-230200-
CENTRAL ILLINOIS

CITY           SKY/WX    TMP DP  RH WIND       PRES   REMARKS
PONTIAC        CLEAR     54  28  37 NE12      30.13S
BLOOMINGTON    CLEAR     53  30  41 NE13      30.11S
DECATUR        CLEAR     52  34  50 NE9       30.08R
PEORIA         CLEAR     57  25  29 NE7       30.12R
SPRINGFIELD    CLEAR     58  31  35 NE12      30.08R
TAYLORVILLE    CLEAR     57  31  36 NE10      30.07R
$$

ILZ033-039-045-046-055>057-062-063-230200-
EAST-CENTRAL ILLINOIS

CITY           SKY/WX    TMP DP  RH WIND       PRES   REMARKS
CHAMPAIGN      CLEAR     57  31  37 NE14      30.08R
MATTOON        PTCLDY    53  34  48 NE10      30.06R
PARIS*         PTCLDY    53  34  47 NE8       30.08R
$$

ILZ079-100>102-230200-
SOUTHWEST ILLINOIS

CITY           SKY/WX    TMP DP  RH WIND       PRES   REMARKS
ALTON          PTCLDY   N/A N/A N/A NE12      30.05R
BELLEVILLE     MOCLDY    53  39  58 N5        30.04R
CAHOKIA*       CLEAR     54  36  50 E6        30.05R
SPARTA*        CLOUDY    52  41  67 N9        30.04S
$$

ILZ064>066-069>071-074>076-080>082-084>086-088>090-092>094-230200-
SOUTH-CENTRAL ILLINOIS

CITY           SKY/WX    TMP DP  RH WIND       PRES   REMARKS
CARBONDALE     LGT RAIN  52  46  80 N7        30.01R
CAIRO*         CLOUDY    52  47  81 N12G18    29.97R
EFFINGHAM*     CLEAR     53  38  55 NE5       30.07R
MARION         CLOUDY    54  48  82 N6        30.01S
MT. VERNON     CLOUDY    53  41  63 N5        30.03R
CENTRALIA*     CLOUDY    55  41  60 NE7       30.03R
SALEM*         CLOUDY    54  39  57 N7        30.04R
$$

ILZ067-068-072-073-078-083-087-091-230200-
SOUTHEAST ILLINOIS

CITY           SKY/WX    TMP DP  RH WIND       PRES   REMARKS
LAWRENCEVILLE  PTCLDY    54  38  54 NE14      30.03R
FLORA*         PTCLDY    55  39  55 N7        30.04R
FAIRFIELD*     CLOUDY    54  42  64 N5        30.01S
HARRISBURG*    CLOUDY    53  46  75 N6        30.00R
ROBINSON*      CLEAR     52  38  58 NE9       30.05R
CARMI*         PTCLDY    52  44  73 N9        30.00S
$$

ABBREVIATIONS USED IN REMARKS
   TC - TEMPERATURE IN CELSIUS
  WCI - WIND CHILL INDEX
   HX - HEAT INDEX
  VSB - VISIBILITY
$$




USA.gov is the U.S. government's official web portal to all federal, state and local government web resources and services.